OBJECT A, 67219

Orbit data source: Space-Track

You're viewing an Uncataloged Satellite

Recently launched and/or uncataloged satellites may have evolving metadata. Metadata may include but not limited to: Owner, Maufacturer, Bus, Motor, and Mission.

OBJECT A, 67219 is a satellite owned by USAF STP (US) in LEO that was launched on Thu, 18 Dec 2025 UTC via an ELECTRON launch vehicle from the Wallops Island (WLPIS). Unknown objects in Earth's orbit typically refer to objects detected orbiting the Earth but have not yet been identified or cataloged. These objects could be anything from previously untracked satellites, spent rocket stages, debris from satellite collisions, or even natural meteoroids temporarily captured by Earth's gravity.

Loading next visibility...
Identifier
67219, 2025-305A
Orbit
LEO
Country
Flag of USUS
Related business
Manufacturer
AERO
Mission
Operational spacecraft
Bus & Motor
DISKSAT, EP
Mass
3 kg wet, 3 kg dry
Launch date (UTC)
2025-12-18 (4 days ago)
Launch vehicle
ELECTRON
Launch site
Wallops Island (WLPIS)
Object type
Unknown
Shape & HBR
Unknown
Radar Cross Section
RCS unknown

Expand to show TLE details & history
Last TLE update: 1 day ago

TLE from 1 day ago
0 OBJECT A
1 67219U 25305A   25354.38090451  .00000510  00000-0  50887-4 0  9997
2 67219  45.0057 310.0654 0003912 276.1097  83.9332 15.05762698   337
Epoch: 2025-12-20T09:08Z
TLE epoch observation values (Epoch: 2025-12-20T09:08:30.149Z)
Latitude
-0.00002°
Longitude
83.73123°
Altitude
548.879 km
Speed
7.589 km/s
True Right ascension
20h 40m 15s
True Declination
0° 00' 00"
Sunlit
Object was in daylight at epoch
Visualization orbit readout
Latitude
Unknown
Longitude
Unknown
Altitude
Unknown
Speed
Unknown
Apparent Right ascension
Unknown
Apparent Declination
Unknown
Sunlit
N/A
Visualization observer readout
Local Sidereal Time
12:16:32
Azimuth
Unknown
Elevation
Unknown
Doppler factor
Unknown
Orbital elements
Apogee altitude
553.469 km
Perigee altitude
548.048 km
Semi-major axis
6,928.895 km
Eccentricity
0.00039
Inclination
45.0057°
RAAN
310.0654°
Arg. of periapsis
276.1097°
True anomaly
83.97778°
Mean anomaly
83.9332°
Eccentric anomaly
83.95549°
Mean motion
3.76311 °/min
Orbital period
95.67 mins
BSTAR
0.000050887
Loading maneuver chart data...
Computing Atmospheric mass density...
Loading historical data...
Loading historical data...
Loading historical data...
Loading historical data...
Loading historical data...
Loading historical data...
Loading historical data...
Other satellites on launch #305 in the year 2025 (2025-12-18 UTC)

Documentation

Showing up to 5 results
|